date,time,water_lv
2021-11-01,00:00:00,11.42
2021-11-01,00:10:00,11.42
2021-11-01,00:20:00,11.42
2021-11-01,00:30:00,11.42
2021-11-01,00:40:00,11.42
2021-11-01,00:50:00,11.4
2021-11-01,01:00:00,11.4
2021-11-01,01:10:00,11.42
2021-11-01,01:20:00,11.4
2021-11-01,01:30:00,11.4
2021-11-01,01:40:00,11.41
2021-11-01,01:50:00,11.41
2021-11-01,02:00:00,11.4
2021-11-01,02:10:00,11.4
2021-11-01,02:20:00,11.4
2021-11-01,02:30:00,11.4
2021-11-01,02:40:00,11.4
2021-11-01,02:50:00,11.39
2021-11-01,03:00:00,11.39
2021-11-01,03:10:00,11.39
2021-11-01,03:20:00,11.39
2021-11-01,03:30:00,11.39
2021-11-01,03:40:00,11.38
2021-11-01,03:50:00,11.38
2021-11-01,04:00:00,11.38
2021-11-01,04:10:00,11.38
2021-11-01,04:20:00,11.38
2021-11-01,04:30:00,11.38
2021-11-01,04:40:00,11.38
2021-11-01,04:50:00,11.37
2021-11-01,05:00:00,11.37
2021-11-01,05:10:00,11.37
2021-11-01,05:20:00,11.37
2021-11-01,05:30:00,11.36
2021-11-01,05:40:00,11.36
2021-11-01,05:50:00,11.36
2021-11-01,06:00:00,11.36
2021-11-01,06:10:00,11.36
2021-11-01,06:20:00,11.36
2021-11-01,06:30:00,11.36
2021-11-01,06:40:00,11.35
2021-11-01,06:50:00,11.36
2021-11-01,07:00:00,11.36
2021-11-01,07:10:00,11.35
2021-11-01,07:20:00,11.34
2021-11-01,07:30:00,11.35
2021-11-01,07:40:00,11.35
2021-11-01,07:50:00,11.35
2021-11-01,08:00:00,11.34
2021-11-01,08:10:00,11.34
2021-11-01,08:20:00,11.34
2021-11-01,08:30:00,11.34
2021-11-01,08:40:00,11.33
2021-11-01,08:50:00,11.33
2021-11-01,09:00:00,11.33
2021-11-01,09:10:00,11.33
2021-11-01,09:20:00,11.33
2021-11-01,09:30:00,11.33
2021-11-01,09:40:00,11.32
2021-11-01,09:50:00,11.32
2021-11-01,10:00:00,11.31
2021-11-01,10:10:00,11.33
2021-11-01,10:20:00,11.32
2021-11-01,10:30:00,11.33
2021-11-01,10:40:00,11.32
2021-11-01,10:50:00,11.32
2021-11-01,11:00:00,11.32
2021-11-01,11:10:00,11.32
2021-11-01,11:20:00,11.32
2021-11-01,11:30:00,11.32
2021-11-01,11:40:00,11.32
2021-11-01,11:50:00,11.31
2021-11-01,12:00:00,11.31
2021-11-01,12:10:00,11.31
2021-11-01,12:20:00,11.3
2021-11-01,12:30:00,11.32
2021-11-01,12:40:00,11.31
2021-11-01,12:50:00,11.31
2021-11-01,13:00:00,11.31
2021-11-01,13:10:00,11.3
2021-11-01,13:20:00,11.3
2021-11-01,13:30:00,11.3
2021-11-01,13:40:00,11.31
2021-11-01,13:50:00,11.3
2021-11-01,14:00:00,11.3
2021-11-01,14:10:00,11.3
2021-11-01,14:20:00,11.29
2021-11-01,14:30:00,11.29
2021-11-01,14:40:00,11.29
2021-11-01,14:50:00,11.29
2021-11-01,15:00:00,11.29
2021-11-01,15:10:00,11.29
2021-11-01,15:20:00,11.29
2021-11-01,15:30:00,11.28
2021-11-01,15:40:00,11.29
2021-11-01,15:50:00,11.29
2021-11-01,16:00:00,11.28
2021-11-01,16:10:00,11.28
2021-11-01,16:20:00,11.29
2021-11-01,16:30:00,11.29
2021-11-01,16:40:00,11.28
2021-11-01,16:50:00,11.28
2021-11-01,17:00:00,11.28
2021-11-01,17:10:00,11.28
2021-11-01,17:20:00,11.28
2021-11-01,17:30:00,11.27
2021-11-01,17:40:00,11.27
2021-11-01,17:50:00,11.28
2021-11-01,18:00:00,11.27
2021-11-01,18:10:00,11.28
2021-11-01,18:20:00,11.27
2021-11-01,18:30:00,11.27
2021-11-01,18:40:00,11.27
2021-11-01,18:50:00,11.27
2021-11-01,19:00:00,11.25
2021-11-01,19:10:00,11.26
2021-11-01,19:20:00,11.26
2021-11-01,19:30:00,11.26
2021-11-01,19:40:00,11.26
2021-11-01,19:50:00,11.26
2021-11-01,20:00:00,11.25
2021-11-01,20:10:00,11.26
2021-11-01,20:20:00,11.25
2021-11-01,20:30:00,11.26
2021-11-01,20:40:00,11.25
2021-11-01,20:50:00,11.26
2021-11-01,21:00:00,11.26
2021-11-01,21:10:00,11.26
2021-11-01,21:20:00,11.25
2021-11-01,21:30:00,11.26
2021-11-01,21:40:00,11.26
2021-11-01,21:50:00,11.26
2021-11-01,22:00:00,11.25
2021-11-01,22:10:00,11.26
2021-11-01,22:20:00,11.26
2021-11-01,22:30:00,11.26
2021-11-01,22:40:00,11.26
2021-11-01,22:50:00,11.27
2021-11-01,23:00:00,11.26
2021-11-01,23:10:00,11.27
2021-11-01,23:20:00,11.27
2021-11-01,23:30:00,11.27
2021-11-01,23:40:00,11.27
2021-11-01,23:50:00,11.27
2021-11-02,00:00:00,11.27
2021-11-02,00:10:00,11.27
2021-11-02,00:20:00,11.27
2021-11-02,00:30:00,11.27
2021-11-02,00:40:00,11.28
2021-11-02,00:50:00,11.27
2021-11-02,01:00:00,11.27
2021-11-02,01:10:00,11.28
2021-11-02,01:20:00,11.27
2021-11-02,01:30:00,11.27
2021-11-02,01:40:00,11.27
2021-11-02,01:50:00,11.27
2021-11-02,02:00:00,11.27
2021-11-02,02:10:00,11.27
2021-11-02,02:20:00,11.27
2021-11-02,02:30:00,11.27
2021-11-02,02:40:00,11.27
2021-11-02,02:50:00,11.26
2021-11-02,03:00:00,11.27
2021-11-02,03:10:00,11.27
2021-11-02,03:20:00,11.27
2021-11-02,03:30:00,11.27
2021-11-02,03:40:00,11.28
2021-11-02,03:50:00,11.27
2021-11-02,04:00:00,11.28
2021-11-02,04:10:00,11.28
2021-11-02,04:20:00,11.28
2021-11-02,04:30:00,11.28
2021-11-02,04:40:00,11.28
2021-11-02,04:50:00,11.28
2021-11-02,05:00:00,11.28
2021-11-02,05:10:00,11.29
2021-11-02,05:20:00,11.28
2021-11-02,05:30:00,11.28
2021-11-02,05:40:00,11.29
2021-11-02,05:50:00,11.29
2021-11-02,06:00:00,11.29
2021-11-02,06:10:00,11.29
2021-11-02,06:20:00,11.29
2021-11-02,06:30:00,11.3
2021-11-02,06:40:00,11.29
2021-11-02,06:50:00,11.3
2021-11-02,07:00:00,11.3
2021-11-02,07:10:00,11.3
2021-11-02,07:20:00,11.3
2021-11-02,07:30:00,11.31
2021-11-02,07:40:00,11.31
2021-11-02,07:50:00,11.31
2021-11-02,08:00:00,11.32
2021-11-02,08:10:00,11.33
2021-11-02,08:20:00,11.33
2021-11-02,08:30:00,11.34
2021-11-02,08:40:00,11.34
2021-11-02,08:50:00,11.35
2021-11-02,09:00:00,11.36
2021-11-02,09:10:00,11.37
2021-11-02,09:20:00,11.38
2021-11-02,09:30:00,11.4
2021-11-02,09:40:00,11.41
2021-11-02,09:50:00,11.43
2021-11-02,10:00:00,11.46
2021-11-02,10:10:00,11.46
2021-11-02,10:20:00,11.49
2021-11-02,10:30:00,11.5
2021-11-02,10:40:00,11.52
2021-11-02,10:50:00,11.53
2021-11-02,11:00:00,11.54
2021-11-02,11:10:00,11.56
2021-11-02,11:20:00,11.56
2021-11-02,11:30:00,11.59
2021-11-02,11:40:00,11.59
2021-11-02,11:50:00,11.59
2021-11-02,12:00:00,11.6
2021-11-02,12:10:00,11.61
2021-11-02,12:20:00,11.6
2021-11-02,12:30:00,11.6
2021-11-02,12:40:00,11.61
2021-11-02,12:50:00,11.6
2021-11-02,13:00:00,11.6
2021-11-02,13:10:00,11.6
2021-11-02,13:20:00,11.6
2021-11-02,13:30:00,11.59
2021-11-02,13:40:00,11.59
2021-11-02,13:50:00,11.59
2021-11-02,14:00:00,11.59
2021-11-02,14:10:00,11.58
2021-11-02,14:20:00,11.59
2021-11-02,14:30:00,11.57
2021-11-02,14:40:00,11.58
2021-11-02,14:50:00,11.56
2021-11-02,15:00:00,11.56
2021-11-02,15:10:00,11.56
2021-11-02,15:20:00,11.55
2021-11-02,15:30:00,11.55
2021-11-02,15:40:00,11.55
2021-11-02,15:50:00,11.55
2021-11-02,16:00:00,11.54
2021-11-02,16:10:00,11.55
2021-11-02,16:20:00,11.55
2021-11-02,16:30:00,11.57
2021-11-02,16:40:00,11.58
2021-11-02,16:50:00,11.62
2021-11-02,17:00:00,11.68
2021-11-02,17:10:00,11.74
2021-11-02,17:20:00,11.83
2021-11-02,17:30:00,11.94
2021-11-02,17:40:00,12.05
2021-11-02,17:50:00,12.17
2021-11-02,18:00:00,12.29
2021-11-02,18:10:00,12.4
2021-11-02,18:20:00,12.5
2021-11-02,18:30:00,12.6
2021-11-02,18:40:00,12.68
2021-11-02,18:50:00,12.77
2021-11-02,19:00:00,12.85
2021-11-02,19:10:00,12.92
2021-11-02,19:20:00,12.98
2021-11-02,19:30:00,13.03
2021-11-02,19:40:00,13.07
2021-11-02,19:50:00,13.11
2021-11-02,20:00:00,13.15
2021-11-02,20:10:00,13.18
2021-11-02,20:20:00,13.21
2021-11-02,20:30:00,13.23
2021-11-02,20:40:00,13.25
2021-11-02,20:50:00,13.26
2021-11-02,21:00:00,13.28
2021-11-02,21:10:00,13.29
2021-11-02,21:20:00,13.29
2021-11-02,21:30:00,13.3
2021-11-02,21:40:00,13.3
2021-11-02,21:50:00,13.3
2021-11-02,22:00:00,13.3
2021-11-02,22:10:00,13.3
2021-11-02,22:20:00,13.3
2021-11-02,22:30:00,13.29
2021-11-02,22:40:00,13.28
2021-11-02,22:50:00,13.28
2021-11-02,23:00:00,13.27
2021-11-02,23:10:00,13.26
2021-11-02,23:20:00,13.25
2021-11-02,23:30:00,13.24
2021-11-02,23:40:00,13.23
2021-11-02,23:50:00,13.22
2021-11-03,00:00:00,13.2
2021-11-03,00:10:00,13.19
2021-11-03,00:20:00,13.18
2021-11-03,00:30:00,13.16
2021-11-03,00:40:00,13.15
2021-11-03,00:50:00,13.14
2021-11-03,01:00:00,13.12
2021-11-03,01:10:00,13.11
2021-11-03,01:20:00,13.09
2021-11-03,01:30:00,13.07
2021-11-03,01:40:00,13.06
2021-11-03,01:50:00,13.04
2021-11-03,02:00:00,13.03
2021-11-03,02:10:00,13.01
2021-11-03,02:20:00,12.99
2021-11-03,02:30:00,12.98
2021-11-03,02:40:00,12.97
2021-11-03,02:50:00,12.95
2021-11-03,03:00:00,12.93
2021-11-03,03:10:00,12.92
2021-11-03,03:20:00,12.9
2021-11-03,03:30:00,12.89
2021-11-03,03:40:00,12.87
2021-11-03,03:50:00,12.85
2021-11-03,04:00:00,12.84
2021-11-03,04:10:00,12.82
2021-11-03,04:20:00,12.8
2021-11-03,04:30:00,12.79
2021-11-03,04:40:00,12.78
2021-11-03,04:50:00,12.76
2021-11-03,05:00:00,12.74
2021-11-03,05:10:00,12.73
2021-11-03,05:20:00,12.71
2021-11-03,05:30:00,12.7
2021-11-03,05:40:00,12.69
2021-11-03,05:50:00,12.67
2021-11-03,06:00:00,12.66
2021-11-03,06:10:00,12.65
2021-11-03,06:20:00,12.63
2021-11-03,06:30:00,12.61
2021-11-03,06:40:00,12.6
2021-11-03,06:50:00,12.59
2021-11-03,07:00:00,12.57
2021-11-03,07:10:00,12.56
2021-11-03,07:20:00,12.55
2021-11-03,07:30:00,12.53
2021-11-03,07:40:00,12.52
2021-11-03,07:50:00,12.51
2021-11-03,08:00:00,12.49
2021-11-03,08:10:00,12.48
2021-11-03,08:20:00,12.47
2021-11-03,08:30:00,12.46
2021-11-03,08:40:00,12.45
2021-11-03,08:50:00,12.44
2021-11-03,09:00:00,12.42
2021-11-03,09:10:00,12.41
2021-11-03,09:20:00,12.4
2021-11-03,09:30:00,12.38
2021-11-03,09:40:00,12.37
2021-11-03,09:50:00,12.35
2021-11-03,10:00:00,12.35
2021-11-03,10:10:00,12.34
2021-11-03,10:20:00,12.33
2021-11-03,10:30:00,12.32
2021-11-03,10:40:00,12.3
2021-11-03,10:50:00,12.29
2021-11-03,11:00:00,12.29
2021-11-03,11:10:00,12.28
2021-11-03,11:20:00,12.26
2021-11-03,11:30:00,12.25
2021-11-03,11:40:00,12.25
2021-11-03,11:50:00,12.24
2021-11-03,12:00:00,12.23
2021-11-03,12:10:00,12.22
2021-11-03,12:20:00,12.21
2021-11-03,12:30:00,12.2
2021-11-03,12:40:00,12.2
2021-11-03,12:50:00,12.19
2021-11-03,13:00:00,12.18
2021-11-03,13:10:00,12.18
2021-11-03,13:20:00,12.16
2021-11-03,13:30:00,12.16
2021-11-03,13:40:00,12.15
2021-11-03,13:50:00,12.14
2021-11-03,14:00:00,12.13
2021-11-03,14:10:00,12.13
2021-11-03,14:20:00,12.12
2021-11-03,14:30:00,12.11
2021-11-03,14:40:00,12.1
2021-11-03,14:50:00,12.1
2021-11-03,15:00:00,12.09
2021-11-03,15:10:00,12.08
2021-11-03,15:20:00,12.07
2021-11-03,15:30:00,12.07
2021-11-03,15:40:00,12.06
2021-11-03,15:50:00,12.05
2021-11-03,16:00:00,12.05
2021-11-03,16:10:00,12.04
2021-11-03,16:20:00,12.03
2021-11-03,16:30:00,12.02
2021-11-03,16:40:00,12.03
2021-11-03,16:50:00,12.01
2021-11-03,17:00:00,12.01
2021-11-03,17:10:00,12
2021-11-03,17:20:00,12.01
2021-11-03,17:30:00,12.01
2021-11-03,17:40:00,12.01
2021-11-03,17:50:00,12
2021-11-03,18:00:00,12.01
2021-11-03,18:10:00,12
2021-11-03,18:20:00,12
2021-11-03,18:30:00,12
2021-11-03,18:40:00,12
2021-11-03,18:50:00,11.99
2021-11-03,19:00:00,12
2021-11-03,19:10:00,11.99
2021-11-03,19:20:00,11.99
2021-11-03,19:30:00,11.99
2021-11-03,19:40:00,11.99
2021-11-03,19:50:00,12
2021-11-03,20:00:00,12
2021-11-03,20:10:00,12.01
2021-11-03,20:20:00,12.02
2021-11-03,20:30:00,12.02
2021-11-03,20:40:00,12.03
2021-11-03,20:50:00,12.05
2021-11-03,21:00:00,12.05
2021-11-03,21:10:00,12.07
2021-11-03,21:20:00,12.08
2021-11-03,21:30:00,12.1
2021-11-03,21:40:00,12.11
2021-11-03,21:50:00,12.13
2021-11-03,22:00:00,12.16
2021-11-03,22:10:00,12.17
2021-11-03,22:20:00,12.21
2021-11-03,22:30:00,12.23
2021-11-03,22:40:00,12.26
2021-11-03,22:50:00,12.3
2021-11-03,23:00:00,12.34
2021-11-03,23:10:00,12.36
2021-11-03,23:20:00,12.4
2021-11-03,23:30:00,12.42
2021-11-03,23:40:00,12.45
2021-11-03,23:50:00,12.48
2021-11-04,00:00:00,12.51
2021-11-04,00:10:00,12.53
2021-11-04,00:20:00,12.56
2021-11-04,00:30:00,12.58
2021-11-04,00:40:00,12.6
2021-11-04,00:50:00,12.61
2021-11-04,01:00:00,12.64
2021-11-04,01:10:00,12.65
2021-11-04,01:20:00,12.66
2021-11-04,01:30:00,12.67
2021-11-04,01:40:00,12.68
2021-11-04,01:50:00,12.69
2021-11-04,02:00:00,12.7
2021-11-04,02:10:00,12.7
2021-11-04,02:20:00,12.7
2021-11-04,02:30:00,12.7
2021-11-04,02:40:00,12.71
2021-11-04,02:50:00,12.71
2021-11-04,03:00:00,12.71
2021-11-04,03:10:00,12.7
2021-11-04,03:20:00,12.7
2021-11-04,03:30:00,12.7
2021-11-04,03:40:00,12.69
2021-11-04,03:50:00,12.69
2021-11-04,04:00:00,12.68
2021-11-04,04:10:00,12.67
2021-11-04,04:20:00,12.67
2021-11-04,04:30:00,12.66
2021-11-04,04:40:00,12.65
2021-11-04,04:50:00,12.64
2021-11-04,05:00:00,12.63
2021-11-04,05:10:00,12.62
2021-11-04,05:20:00,12.62
2021-11-04,05:30:00,12.6
2021-11-04,05:40:00,12.59
2021-11-04,05:50:00,12.58
2021-11-04,06:00:00,12.57
2021-11-04,06:10:00,12.56
2021-11-04,06:20:00,12.55
2021-11-04,06:30:00,12.54
2021-11-04,06:40:00,12.52
2021-11-04,06:50:00,12.51
2021-11-04,07:00:00,12.5
2021-11-04,07:10:00,12.49
2021-11-04,07:20:00,12.48
2021-11-04,07:30:00,12.47
2021-11-04,07:40:00,12.46
2021-11-04,07:50:00,12.45
2021-11-04,08:00:00,12.43
2021-11-04,08:10:00,12.43
2021-11-04,08:20:00,12.42
2021-11-04,08:30:00,12.41
2021-11-04,08:40:00,12.4
2021-11-04,08:50:00,12.39
2021-11-04,09:00:00,12.38
2021-11-04,09:10:00,12.37
2021-11-04,09:20:00,12.36
2021-11-04,09:30:00,12.35
2021-11-04,09:40:00,12.34
2021-11-04,09:50:00,12.33
2021-11-04,10:00:00,12.32
2021-11-04,10:10:00,12.32
2021-11-04,10:20:00,12.3
2021-11-04,10:30:00,12.29
2021-11-04,10:40:00,12.28
2021-11-04,10:50:00,12.27
2021-11-04,11:00:00,12.27
2021-11-04,11:10:00,12.26
2021-11-04,11:20:00,12.25
2021-11-04,11:30:00,12.23
2021-11-04,11:40:00,12.23
2021-11-04,11:50:00,12.22
2021-11-04,12:00:00,12.21
2021-11-04,12:10:00,12.21
2021-11-04,12:20:00,12.2
2021-11-04,12:30:00,12.2
2021-11-04,12:40:00,12.19
2021-11-04,12:50:00,12.19
2021-11-04,13:00:00,12.17
2021-11-04,13:10:00,12.17
2021-11-04,13:20:00,12.16
2021-11-04,13:30:00,12.17
2021-11-04,13:40:00,12.15
2021-11-04,13:50:00,12.14
2021-11-04,14:00:00,12.14
2021-11-04,14:10:00,12.13
2021-11-04,14:20:00,12.13
2021-11-04,14:30:00,12.12
2021-11-04,14:40:00,12.13
2021-11-04,14:50:00,12.11
2021-11-04,15:00:00,12.11
2021-11-04,15:10:00,12.11
2021-11-04,15:20:00,12.1
2021-11-04,15:30:00,12.09
2021-11-04,15:40:00,12.13
2021-11-04,15:50:00,12.15
2021-11-04,16:00:00,12.17
2021-11-04,16:10:00,12.17
2021-11-04,16:20:00,12.19
2021-11-04,16:30:00,12.2
2021-11-04,16:40:00,12.21
2021-11-04,16:50:00,12.23
2021-11-04,17:00:00,12.25
2021-11-04,17:10:00,12.28
2021-11-04,17:20:00,12.32
2021-11-04,17:30:00,12.38
2021-11-04,17:40:00,12.44
2021-11-04,17:50:00,12.52
2021-11-04,18:00:00,12.61
2021-11-04,18:10:00,12.7
2021-11-04,18:20:00,12.81
2021-11-04,18:30:00,12.9
2021-11-04,18:40:00,13.01
2021-11-04,18:50:00,13.11
2021-11-04,19:00:00,13.21
2021-11-04,19:10:00,13.3
2021-11-04,19:20:00,13.4
2021-11-04,19:30:00,13.49
2021-11-04,19:40:00,13.57
2021-11-04,19:50:00,13.65
2021-11-04,20:00:00,13.72
2021-11-04,20:10:00,13.79
2021-11-04,20:20:00,13.86
2021-11-04,20:30:00,13.92
2021-11-04,20:40:00,13.97
2021-11-04,20:50:00,14.02
2021-11-04,21:00:00,14.07
2021-11-04,21:10:00,14.12
2021-11-04,21:20:00,14.16
2021-11-04,21:30:00,14.19
2021-11-04,21:40:00,14.23
2021-11-04,21:50:00,14.26
2021-11-04,22:00:00,14.29
2021-11-04,22:10:00,14.32
2021-11-04,22:20:00,14.35
2021-11-04,22:30:00,14.37
2021-11-04,22:40:00,14.39
2021-11-04,22:50:00,14.41
2021-11-04,23:00:00,14.43
2021-11-04,23:10:00,14.44
2021-11-04,23:20:00,14.46
2021-11-04,23:30:00,14.47
2021-11-04,23:40:00,14.48
2021-11-04,23:50:00,14.5
2021-11-05,00:00:00,14.51
2021-11-05,00:10:00,14.51
2021-11-05,00:20:00,14.52
2021-11-05,00:30:00,14.53
2021-11-05,00:40:00,14.53
2021-11-05,00:50:00,14.54
2021-11-05,01:00:00,14.54
2021-11-05,01:10:00,14.55
2021-11-05,01:20:00,14.55
2021-11-05,01:30:00,14.55
2021-11-05,01:40:00,14.55
2021-11-05,01:50:00,14.56
2021-11-05,02:00:00,14.56
2021-11-05,02:10:00,14.56
2021-11-05,02:20:00,14.56
2021-11-05,02:30:00,14.56
2021-11-05,02:40:00,14.56
2021-11-05,02:50:00,14.56
2021-11-05,03:00:00,14.56
2021-11-05,03:10:00,14.56
2021-11-05,03:20:00,14.57
2021-11-05,03:30:00,14.56
2021-11-05,03:40:00,14.56
2021-11-05,03:50:00,14.56
2021-11-05,04:00:00,14.55
2021-11-05,04:10:00,14.55
2021-11-05,04:20:00,14.55
2021-11-05,04:30:00,14.54
2021-11-05,04:40:00,14.54
2021-11-05,04:50:00,14.53
2021-11-05,05:00:00,14.53
2021-11-05,05:10:00,14.52
2021-11-05,05:20:00,14.51
2021-11-05,05:30:00,14.51
2021-11-05,05:40:00,14.5
2021-11-05,05:50:00,14.49
2021-11-05,06:00:00,14.48
2021-11-05,06:10:00,14.48
2021-11-05,06:20:00,14.47
2021-11-05,06:30:00,14.46
2021-11-05,06:40:00,14.45
2021-11-05,06:50:00,14.44
2021-11-05,07:00:00,14.43
2021-11-05,07:10:00,14.42
2021-11-05,07:20:00,14.4
2021-11-05,07:30:00,14.39
2021-11-05,07:40:00,14.38
2021-11-05,07:50:00,14.37
2021-11-05,08:00:00,14.35
2021-11-05,08:10:00,14.34
2021-11-05,08:20:00,14.33
2021-11-05,08:30:00,14.31
2021-11-05,08:40:00,14.3
2021-11-05,08:50:00,14.29
2021-11-05,09:00:00,14.27
2021-11-05,09:10:00,14.26
2021-11-05,09:20:00,14.24
2021-11-05,09:30:00,14.23
2021-11-05,09:40:00,14.21
2021-11-05,09:50:00,14.2
2021-11-05,10:00:00,14.18
2021-11-05,10:10:00,14.16
2021-11-05,10:20:00,14.15
2021-11-05,10:30:00,14.13
2021-11-05,10:40:00,14.12
2021-11-05,10:50:00,14.1
2021-11-05,11:00:00,14.08
2021-11-05,11:10:00,14.06
2021-11-05,11:20:00,14.05
2021-11-05,11:30:00,14.03
2021-11-05,11:40:00,14.01
2021-11-05,11:50:00,14
2021-11-05,12:00:00,13.98
2021-11-05,12:10:00,13.96
2021-11-05,12:20:00,13.94
2021-11-05,12:30:00,13.93
2021-11-05,12:40:00,13.91
2021-11-05,12:50:00,13.89
2021-11-05,13:00:00,13.87
2021-11-05,13:10:00,13.85
2021-11-05,13:20:00,13.83
2021-11-05,13:30:00,13.81
2021-11-05,13:40:00,13.8
2021-11-05,13:50:00,13.77
2021-11-05,14:00:00,13.76
2021-11-05,14:10:00,13.74
2021-11-05,14:20:00,13.72
2021-11-05,14:30:00,13.71
2021-11-05,14:40:00,13.69
2021-11-05,14:50:00,13.67
2021-11-05,15:00:00,13.65
2021-11-05,15:10:00,13.64
2021-11-05,15:20:00,13.62
2021-11-05,15:30:00,13.6
2021-11-05,15:40:00,13.59
2021-11-05,15:50:00,13.57
2021-11-05,16:00:00,13.56
2021-11-05,16:10:00,13.54
2021-11-05,16:20:00,13.53
2021-11-05,16:30:00,13.52
2021-11-05,16:40:00,13.51
2021-11-05,16:50:00,13.5
2021-11-05,17:00:00,13.49
2021-11-05,17:10:00,13.49
2021-11-05,17:20:00,13.48
2021-11-05,17:30:00,13.47
2021-11-05,17:40:00,13.46
2021-11-05,17:50:00,13.46
2021-11-05,18:00:00,13.45
2021-11-05,18:10:00,13.44
2021-11-05,18:20:00,13.44
2021-11-05,18:30:00,13.43
2021-11-05,18:40:00,13.42
2021-11-05,18:50:00,13.42
2021-11-05,19:00:00,13.41
2021-11-05,19:10:00,13.4
2021-11-05,19:20:00,13.4
2021-11-05,19:30:00,13.39
2021-11-05,19:40:00,13.39
2021-11-05,19:50:00,13.38
2021-11-05,20:00:00,13.37
2021-11-05,20:10:00,13.37
2021-11-05,20:20:00,13.36
2021-11-05,20:30:00,13.36
2021-11-05,20:40:00,13.35
2021-11-05,20:50:00,13.34
2021-11-05,21:00:00,13.33
2021-11-05,21:10:00,13.33
2021-11-05,21:20:00,13.32
2021-11-05,21:30:00,13.31
2021-11-05,21:40:00,13.31
2021-11-05,21:50:00,13.3
2021-11-05,22:00:00,13.29
2021-11-05,22:10:00,13.28
2021-11-05,22:20:00,13.28
2021-11-05,22:30:00,13.27
2021-11-05,22:40:00,13.26
2021-11-05,22:50:00,13.25
2021-11-05,23:00:00,13.25
2021-11-05,23:10:00,13.24
2021-11-05,23:20:00,13.23
2021-11-05,23:30:00,13.22
2021-11-05,23:40:00,13.21
2021-11-05,23:50:00,13.2
2021-11-06,00:00:00,13.19
2021-11-06,00:10:00,13.18
2021-11-06,00:20:00,13.17
2021-11-06,00:30:00,13.16
2021-11-06,00:40:00,13.15
2021-11-06,00:50:00,13.14
2021-11-06,01:00:00,13.12
2021-11-06,01:10:00,13.11
2021-11-06,01:20:00,13.1
2021-11-06,01:30:00,13.09
2021-11-06,01:40:00,13.09
2021-11-06,01:50:00,13.07
2021-11-06,02:00:00,13.06
2021-11-06,02:10:00,13.05
2021-11-06,02:20:00,13.04
2021-11-06,02:30:00,13.03
2021-11-06,02:40:00,13.02
2021-11-06,02:50:00,13.01
2021-11-06,03:00:00,13
2021-11-06,03:10:00,12.98
2021-11-06,03:20:00,12.97
2021-11-06,03:30:00,12.96
2021-11-06,03:40:00,12.95
2021-11-06,03:50:00,12.95
2021-11-06,04:00:00,12.94
2021-11-06,04:10:00,12.93
2021-11-06,04:20:00,12.91
2021-11-06,04:30:00,12.91
2021-11-06,04:40:00,12.89
2021-11-06,04:50:00,12.88
2021-11-06,05:00:00,12.87
2021-11-06,05:10:00,12.87
2021-11-06,05:20:00,12.85
2021-11-06,05:30:00,12.84
2021-11-06,05:40:00,12.83
2021-11-06,05:50:00,12.82
2021-11-06,06:00:00,12.82
2021-11-06,06:10:00,12.8
2021-11-06,06:20:00,12.79
2021-11-06,06:30:00,12.78
2021-11-06,06:40:00,12.76
2021-11-06,06:50:00,12.77
2021-11-06,07:00:00,12.75
2021-11-06,07:10:00,12.74
2021-11-06,07:20:00,12.74
2021-11-06,07:30:00,12.73
2021-11-06,07:40:00,12.73
2021-11-06,07:50:00,12.72
2021-11-06,08:00:00,12.71
2021-11-06,08:10:00,12.68
2021-11-06,08:20:00,12.69
2021-11-06,08:30:00,12.68
2021-11-06,08:40:00,12.68
2021-11-06,08:50:00,12.67
2021-11-06,09:00:00,12.66
2021-11-06,09:10:00,12.65
2021-11-06,09:20:00,12.64
2021-11-06,09:30:00,12.63
2021-11-06,09:40:00,12.62
2021-11-06,09:50:00,12.61
2021-11-06,10:00:00,12.6
2021-11-06,10:10:00,12.6
2021-11-06,10:20:00,12.59
2021-11-06,10:30:00,12.58
2021-11-06,10:40:00,12.57
2021-11-06,10:50:00,12.57
2021-11-06,11:00:00,12.56
2021-11-06,11:10:00,12.55
2021-11-06,11:20:00,12.55
2021-11-06,11:30:00,12.54
2021-11-06,11:40:00,12.53
2021-11-06,11:50:00,12.52
2021-11-06,12:00:00,12.52
2021-11-06,12:10:00,12.52
2021-11-06,12:20:00,12.51
2021-11-06,12:30:00,12.5
2021-11-06,12:40:00,12.5
2021-11-06,12:50:00,12.49
2021-11-06,13:00:00,12.48
2021-11-06,13:10:00,12.47
2021-11-06,13:20:00,12.47
2021-11-06,13:30:00,12.46
2021-11-06,13:40:00,12.45
2021-11-06,13:50:00,12.45
2021-11-06,14:00:00,12.45
2021-11-06,14:10:00,12.44
2021-11-06,14:20:00,12.43
2021-11-06,14:30:00,12.43
2021-11-06,14:40:00,12.42
2021-11-06,14:50:00,12.41
2021-11-06,15:00:00,12.41
2021-11-06,15:10:00,12.4
2021-11-06,15:20:00,12.39
2021-11-06,15:30:00,12.39
2021-11-06,15:40:00,12.39
2021-11-06,15:50:00,12.38
2021-11-06,16:00:00,12.37
2021-11-06,16:10:00,12.37
2021-11-06,16:20:00,12.36
2021-11-06,16:30:00,12.35
2021-11-06,16:40:00,12.35
2021-11-06,16:50:00,12.35
2021-11-06,17:00:00,12.34
2021-11-06,17:10:00,12.33
2021-11-06,17:20:00,12.33
2021-11-06,17:30:00,12.32
2021-11-06,17:40:00,12.31
2021-11-06,17:50:00,12.31
2021-11-06,18:00:00,12.3
2021-11-06,18:10:00,12.3
2021-11-06,18:20:00,12.28
2021-11-06,18:30:00,12.28
2021-11-06,18:40:00,12.28
2021-11-06,18:50:00,12.27
2021-11-06,19:00:00,12.27
2021-11-06,19:10:00,12.26
2021-11-06,19:20:00,12.26
2021-11-06,19:30:00,12.25
2021-11-06,19:40:00,12.25
2021-11-06,19:50:00,12.24
2021-11-06,20:00:00,12.24
2021-11-06,20:10:00,12.23
2021-11-06,20:20:00,12.23
2021-11-06,20:30:00,12.22
2021-11-06,20:40:00,12.21
2021-11-06,20:50:00,12.21
2021-11-06,21:00:00,12.21
2021-11-06,21:10:00,12.21
2021-11-06,21:20:00,12.2
2021-11-06,21:30:00,12.19
2021-11-06,21:40:00,12.19
2021-11-06,21:50:00,12.18
2021-11-06,22:00:00,12.17
2021-11-06,22:10:00,12.17
2021-11-06,22:20:00,12.17
2021-11-06,22:30:00,12.18
2021-11-06,22:40:00,12.18
2021-11-06,22:50:00,12.19
2021-11-06,23:00:00,12.2
2021-11-06,23:10:00,12.21
2021-11-06,23:20:00,12.24
2021-11-06,23:30:00,12.24
2021-11-06,23:40:00,12.26
2021-11-06,23:50:00,12.29
2021-11-07,00:00:00,12.31
2021-11-07,00:10:00,12.33
2021-11-07,00:20:00,12.36
2021-11-07,00:30:00,12.38
2021-11-07,00:40:00,12.4
2021-11-07,00:50:00,12.41
2021-11-07,01:00:00,12.43
2021-11-07,01:10:00,12.45
2021-11-07,01:20:00,12.47
2021-11-07,01:30:00,12.48
2021-11-07,01:40:00,12.5
2021-11-07,01:50:00,12.5
2021-11-07,02:00:00,12.51
2021-11-07,02:10:00,12.52
2021-11-07,02:20:00,-
2021-11-07,02:30:00,12.54
2021-11-07,02:40:00,12.55
2021-11-07,02:50:00,12.55
2021-11-07,03:00:00,12.56
2021-11-07,03:10:00,12.55
2021-11-07,03:20:00,12.57
2021-11-07,03:30:00,12.56
2021-11-07,03:40:00,12.56
2021-11-07,03:50:00,12.57
2021-11-07,04:00:00,12.56
2021-11-07,04:10:00,12.56
2021-11-07,04:20:00,12.56
2021-11-07,04:30:00,12.55
2021-11-07,04:40:00,12.56
2021-11-07,04:50:00,12.55
2021-11-07,05:00:00,12.55
2021-11-07,05:10:00,12.54
2021-11-07,05:20:00,12.55
2021-11-07,05:30:00,12.55
2021-11-07,05:40:00,12.54
2021-11-07,05:50:00,12.54
2021-11-07,06:00:00,12.54
2021-11-07,06:10:00,12.53
2021-11-07,06:20:00,12.53
2021-11-07,06:30:00,12.51
2021-11-07,06:40:00,12.51
2021-11-07,06:50:00,12.51
2021-11-07,07:00:00,12.51
2021-11-07,07:10:00,12.49
2021-11-07,07:20:00,12.49
2021-11-07,07:30:00,12.48
2021-11-07,07:40:00,12.48
2021-11-07,07:50:00,12.48
2021-11-07,08:00:00,12.49
2021-11-07,08:10:00,12.46
2021-11-07,08:20:00,12.46
2021-11-07,08:30:00,12.44
2021-11-07,08:40:00,12.45
2021-11-07,08:50:00,12.43
2021-11-07,09:00:00,12.43
2021-11-07,09:10:00,12.43
2021-11-07,09:20:00,12.42
2021-11-07,09:30:00,12.41
2021-11-07,09:40:00,12.41
2021-11-07,09:50:00,12.4
2021-11-07,10:00:00,12.39
2021-11-07,10:10:00,12.39
2021-11-07,10:20:00,12.38